{"data":{"norad_id":53795,"intl_designator":"2022-111Y","name":"STARLINK-4742","alt_names":[],"object_type":"PAYLOAD","status":"ACTIVE","operator":null,"country":"US","launch_date":"2022-09-11","launch_site_code":"AFETR","launch_vehicle":null,"mission":null,"orbit_class":"UNKNOWN","rcs_meters":null,"size_class":null,"mass_kg":null,"dimensions":null,"purposes":["comms"],"wikipedia_slug":null,"has_3d_model":false,"image_url":null,"decayed_at":null,"tle_current":{"epoch":"2026-09-20T06:46:09.331680Z","epoch_age_seconds":102899,"freshness":"FRESH","line1":"1 53795U 22111Y   26263.28205245  .00002104  00000+0  79563-4 0  9993","line2":"2 53795  53.1589 107.9401 0001084  91.4837 268.6289 15.31691637223234","mean_motion":15.31691637,"eccentricity":0.0001084,"inclination_deg":53.1589,"raan_deg":107.9401,"arg_perigee_deg":91.4837,"mean_anomaly_deg":268.6289,"bstar":7.9563e-5,"rev_number":22323,"period_min":94.013701270865,"perigee_km":470.02250403823,"apogee_km":471.50734597557,"semimajor_km":6848.9019250069,"source":"CELESTRAK","updated_at":"2026-09-21T09:00:32.994834Z"}}}